This demonstration page uses our WeatherBlox Daily Observations layout. Learn more.

Left ArrowRight Arrow

44.89941, -97.11507

Hourly Observations for June 7, 2021

Temp ( °F °C ) Dew Point ( °F °C ) Humidity (%) Winds ( mph kmh ) Pressure ( in mb ) Visibility ( mi km ) Precip ( " mm )
12:53 am 00:53 Clear 65 18.3 51 10.6 61 61 NE 6 9 29.72 1007 10 16 0.00 0.00
1:53 am 01:53 Mostly Cloudy 64 17.8 48 8.9 56 56 N 9 15 29.73 1007 10 16 0.00 0.00
2:53 am 02:53 Mostly Clear 61 16.1 44 6.7 54 54 N 8 13 29.74 1007 10 16 0.00 0.00
3:53 am 03:53 Clear 62 16.7 41 5 46 46 NNE 7 11 29.73 1007 10 16 0.00 0.00
4:53 am 04:53 Clear 60 15.6 40 4.4 47 47 NNE 5 7 29.73 1007 10 16 0.00 0.00
5:53 am 05:53 Sunny 60 15.6 41 5 50 50 N 3 6 29.75 1008 10 16 0.00 0.00
6:53 am 06:53 Sunny 61 16.1 44 6.7 54 54 N 5 7 29.77 1008 10 16 0.00 0.00
7:53 am 07:53 Sunny 71 21.7 42 5.6 35 35 ENE 10 17 29.77 1008 10 16 0.00 0.00
8:53 am 08:53 Sunny 74 23.3 39 3.9 28 28 ENE 16 26 29.78 1008 10 16 0.00 0.00
9:53 am 09:53 Sunny 77 25 39 3.9 26 26 E 16 26 29.77 1008 10 16 0.00 0.00
10:53 am 10:53 Sunny 81 27.2 44 6.7 27 27 E 15 24 29.75 1007 10 16 0.00 0.00
11:53 am 11:53 Sunny 83 28.3 52 11.1 34 34 ESE 9 15 29.74 1007 10 16 0.00 0.00
12:53 pm 12:53 Sunny 85 29.4 56 13.3 37 37 ESE 10 17 29.75 1007 10 16 0.00 0.00
1:53 pm 13:53 Sunny 90 32.2 60 15.6 37 37 SSE 13 20 29.73 1007 10 16 0.00 0.00
2:53 pm 14:53 Sunny 88 31.1 65 18.3 46 46 S 16 26 29.72 1007 10 16 0.00 0.00
3:53 pm 15:53 Mostly Sunny 93 33.9 64 17.8 38 38 S 15 24 29.70 1006 10 16 0.00 0.00
4:53 pm 16:53 Sunny 94 34.4 66 18.9 40 40 SSW 13 20 29.70 1006 10 16 0.00 0.00
5:53 pm 17:53 Sunny 93 33.9 63 17.2 37 37 SSW 16 26 29.69 1005 10 16 0.00 0.00
6:53 pm 18:53 Mostly Sunny 92 33.3 64 17.8 40 40 S 9 15 29.69 1005 10 16 0.00 0.00
7:53 pm 19:53 Sunny 89 31.7 63 17.2 42 42 S 14 22 29.68 1005 10 16 0.00 0.00
8:53 pm 20:53 Sunny 85 29.4 62 16.7 46 46 S 10 17 29.70 1006 10 16 0.00 0.00
9:53 pm 21:53 Clear 81 27.2 60 15.6 49 49 SSE 9 15 29.71 1006 10 16 0.00 0.00
10:53 pm 22:53 Clear 79 26.1 60 15.6 52 52 SSE 9 15 29.75 1008 10 16 0.00 0.00
11:53 pm 23:53 Clear 78 25.6 60 15.6 54 54 SSE 10 17 29.78 1008 10 16 0.00 0.00

Powered by AerisWeather